Regional Weather Roundup
Issued by NWS

Home | Current Version | Previous Version | Graphics & Text | Print | Product List | Glossary On
Versions: 1 2 3 4 5 6 7 8 9 10 11 12 13 14 15 16 17 18 19 20 21 22 23 24 25 26 27 28 29 30 31 32 33 34 35 36 37 38 39 40 41 42 43 44 45 46 47 48 49 50
000
ASUS45 KCYS 202010
RWRWY

WYOMING REGIONAL WEATHER ROUNDUP
NATIONAL WEATHER SERVICE CHEYENNE WY
200 PM MDT SUN MAY 20 2018

NOTE:  "FAIR" INDICATES FEW OR NO CLOUDS BELOW 12,000 FEET
WITH NO SIGNIFICANT WEATHER AND/OR OBSTRUCTIONS TO VISIBILITY.

WYZ001-202100-
YELLOWSTONE NATIONAL PARK

CITY           SKY/WX    TMP DP  RH WIND       PRES   REMARKS
LK YELLOWSTONE   N/A     53  35  50 CALM      30.15F
W YELLOWSTONE  NOT AVBL

$$
WYZ002>013-054>058-071-098>099-202100-
NORTHERN WYOMING

CITY           SKY/WX    TMP DP  RH WIND       PRES   REMARKS
JACKSON        FAIR      62  39  42 VRB3      30.06F
CODY           FAIR      66  41  40 SE9       30.05F
GREYBULL       FAIR      70  45  40 S10       30.02F
WORLAND        FAIR      67  46  47 S8        30.02F
SHERIDAN       FAIR      70  44  39 SE21G29   30.01F
BUFFALO        FAIR      66  42  41 SE24G33   30.07F
GILLETTE         N/A     62  43  49 SE15G28   30.11F
NEWCASTLE      FAIR      55  36  47 SE15      30.19F

$$
WYZ014>020-022>026-101>103-202100-
CENTRAL WYOMING

CITY           SKY/WX    TMP DP  RH WIND       PRES   REMARKS
BIG PINEY      FAIR      61  39  44 VRB3      30.12F
PINEDALE       FAIR      59  37  44 S6        30.14F
DUBOIS         FAIR      59  39  47 E12       30.11F
LANDER         FAIR      58  45  62 S3        30.07F
RIVERTON       FAIR      60  44  55 E7        30.09F
CASPER         FAIR      60  43  53 VRB6      30.10F
DOUGLAS          N/A     60  45  57 SE16G29   30.14F

$$
WYZ021-027>030-104>119-202100-
SOUTHERN WYOMING

CITY           SKY/WX    TMP DP  RH WIND       PRES   REMARKS
EVANSTON       FAIR      63  40  42 E14       30.07F
KEMMERER       FAIR      61  36  39 CALM      30.12F
FORT BRIDGER   FAIR      67  38  35 E10       30.12F
ROCK SPRINGS   FAIR      64  35  34 NW5       30.09F
DIXON          FAIR      68  34  28 W10G17    30.11F THUNDER
RAWLINS        FAIR      65  35  33 NW8       30.11F
SARATOGA       FAIR      64  32  29 N8        30.12F
LARAMIE        FAIR      60  40  47 S15G21    30.12F
CHEYENNE       FAIR      53  42  66 S8G16     30.18F
TORRINGTON     FAIR      61  45  55 SE12      30.15F
PINE BLUFFS    CLOUDY    55  41  58 SE3       30.18F

$$



USA.gov is the U.S. government's official web portal to all federal, state and local government web resources and services.